Location: Unspecified
(0.0000°N, 0.0000°E)
Time: 07:30:31
(UTC+00:00)

OTV 5 (USA 277) - Visible Passes

Search period start: 23 September 2017 00:00
Search period end: 03 October 2017 00:00
Orbit: 404 x 417 km, 43.0° (Epoch: 07 September)

Date Brightness Start Highest point End Pass type
(mag) Time Alt. Az. Time Alt. Az. Time Alt. Az.
30 Sep ? 19:25:17 10° SSW 19:26:30 20° SSW 19:26:30 20° SSW visible
01 Oct ? 18:34:44 10° S 18:37:31 24° SE 18:38:42 20° ESE visible
02 Oct ? 19:20:39 10° WSW 19:23:39 30° NW 19:23:47 30° NW visible
